Weather History for KGGE - September, 2013

Change the Weather History Date:

Thursday, September 5, 2013

  Actual Average Record
Temperature  
Mean Temperature 82 °F -  
Max Temperature 91 °F 86 °F 91 °F (2013)
Min Temperature 73 °F 67 °F 60 °F (2010)
Cooling Degree Days 17    
Growing Degree Days 32 (Base 50)    
Moisture  
Dew Point 75 °F    
Average Humidity 82    
Maximum Humidity 100    
Minimum Humidity 52    
Precipitation  
Precipitation 0.00 in - - ()
Sea Level Pressure  
Sea Level Pressure 30.06 in    
Wind  
Wind Speed 2 mph (SSE)    
Max Wind Speed 9 mph    
Max Gust Speed -    
Visibility 8 miles    
Events Thunderstorm    
Averages and records for this station are not official NWS values.
T = Trace of Precipitation, MM = Missing Value Source: NWS Daily Summary

Daily Weather History Graph

Daily Weather History Graph

Search for Another Location

Airport or City:

Trip Planner

Search our weather history database for the weather conditions in past years. The results will help you decide how hot, cold, wet, or windy it might be!

Date:

Astronomy

Sep. 05, 2013 Rise Set
Actual Time 6:54 AM EDT 7:36 PM EDT
Civil Twilight 6:29 AM EDT 8:01 PM EDT
Nautical Twilight 5:59 AM EDT 8:31 PM EDT
Astronomical Twilight 5:29 AM EDT 9:01 PM EDT
Moon 7:01 AM EDT (9/5) 7:32 PM EDT (9/5)
Length of Visible Light 13h 32m
Length of Day
12h 42m
New Moon, 0% of the Moon is Illuminated
Sep 5
New Moon
Sep 12
First Quarter
Sep 19
Full
Sep 26
Last Quarter
Oct 4
New

Hourly Weather History & Observations

Time (EDT) Temp. Heat Index Dew Point Humidity Pressure Visibility Wind Dir Wind Speed Gust Speed Precip Events Conditions
12:15 AM 77.0 °F - 77.0 °F 100% 30.08 in 7.0 mi Calm Calm - N/A   Scattered Clouds
12:35 AM 77.0 °F - 77.0 °F 100% 30.08 in 5.0 mi SW 3.5 mph - N/A   Mostly Cloudy
12:55 AM 77.0 °F - 77.0 °F 100% 30.07 in 5.0 mi Calm Calm - N/A Thunderstorm Haze
1:15 AM 77.0 °F - 77.0 °F 100% 30.07 in 7.0 mi Calm Calm - N/A   Overcast
1:35 AM 77.0 °F - 77.0 °F 100% 30.07 in 5.0 mi Calm Calm - N/A   Overcast
1:55 AM 77.0 °F - 77.0 °F 100% 30.06 in 7.0 mi SSW 4.6 mph - N/A   Overcast
2:15 AM 77.0 °F - 77.0 °F 100% 30.06 in 5.0 mi WSW 3.5 mph - N/A   Overcast
2:35 AM 77.0 °F - 77.0 °F 100% 30.06 in 5.0 mi Calm Calm - N/A   Haze
2:55 AM 75.2 °F - 75.2 °F 100% 30.06 in 5.0 mi Calm Calm - N/A   Haze
3:15 AM - - - N/A% 30.05 in 5.0 mi SW 3.5 mph - N/A   Haze
3:35 AM 73.4 °F - 73.4 °F 100% 30.04 in 7.0 mi Calm Calm - N/A   Clear
3:55 AM 73.4 °F - 73.4 °F 100% 30.04 in 10.0 mi Calm Calm - N/A   Clear
4:15 AM 73.4 °F - 73.4 °F 100% 30.04 in 5.0 mi Calm Calm - N/A   Haze
4:35 AM - - - N/A% 30.04 in 7.0 mi Calm Calm - N/A   Clear
4:55 AM - - - N/A% 30.04 in 5.0 mi Calm Calm - N/A   Haze
5:15 AM - - - N/A% 30.04 in 7.0 mi Calm Calm - N/A   Clear
5:35 AM - - - N/A% 30.05 in 5.0 mi ESE 3.5 mph - N/A   Haze
5:55 AM - - - N/A% 30.06 in 5.0 mi Calm Calm - N/A   Haze
6:15 AM - - - N/A% 30.06 in 5.0 mi Calm Calm - N/A   Haze
6:35 AM - - - N/A% 30.06 in 5.0 mi Calm Calm - N/A   Haze
6:55 AM - - - N/A% 30.07 in 5.0 mi Calm Calm - N/A   Haze
7:15 AM - - - N/A% 30.07 in 7.0 mi Calm Calm - N/A   Clear
7:35 AM - - - N/A% 30.08 in 4.0 mi Calm Calm - N/A   Haze
7:55 AM - - - N/A% 30.09 in 5.0 mi Calm Calm - N/A   Haze
8:15 AM - - - N/A% 30.09 in 5.0 mi SW 3.5 mph - N/A   Haze
8:35 AM 75.2 °F - 75.2 °F 100% 30.09 in 7.0 mi Calm Calm - N/A   Clear
8:55 AM 77.0 °F - 77.0 °F 100% 30.09 in 10.0 mi Calm Calm - N/A   Clear
9:15 AM 78.8 °F - 77.0 °F 94% 30.09 in 10.0 mi Calm Calm - N/A   Clear
9:35 AM 80.6 °F 86.2 °F 75.2 °F 84% 30.09 in 10.0 mi Calm Calm - N/A   Clear
9:55 AM 80.6 °F 85.4 °F 73.4 °F 79% 30.09 in 10.0 mi Calm Calm - N/A   Clear
10:15 AM 82.4 °F 88.2 °F 73.4 °F 74% 30.10 in 10.0 mi Calm Calm - N/A   Clear
10:35 AM 82.4 °F 89.5 °F 75.2 °F 79% 30.10 in 10.0 mi WNW 5.8 mph - N/A   Clear
10:55 AM 84.2 °F 90.9 °F 73.4 °F 70% 30.10 in 10.0 mi Calm Calm - N/A   Clear
11:15 AM 86.0 °F 95.1 °F 75.2 °F 70% 30.10 in 10.0 mi Calm Calm - N/A   Scattered Clouds
11:35 AM 86.0 °F 95.1 °F 75.2 °F 70% 30.10 in 10.0 mi SSE 3.5 mph - N/A   Mostly Cloudy
11:55 AM 86.0 °F 95.1 °F 75.2 °F 70% 30.10 in 10.0 mi South 3.5 mph - N/A   Overcast
12:15 PM 87.8 °F 95.6 °F 73.4 °F 62% 30.09 in 10.0 mi WSW 4.6 mph - N/A   Overcast
12:35 PM 86.0 °F 93.4 °F 73.4 °F 66% 30.09 in 10.0 mi NNW 3.5 mph - N/A   Mostly Cloudy
12:55 PM 87.8 °F 95.6 °F 73.4 °F 62% 30.08 in 10.0 mi West 3.5 mph - N/A   Mostly Cloudy
1:15 PM 87.8 °F 95.6 °F 73.4 °F 62% 30.08 in 10.0 mi Calm Calm - N/A   Mostly Cloudy
1:35 PM 89.6 °F 98.2 °F 73.4 °F 59% 30.07 in 10.0 mi North 4.6 mph - N/A   Scattered Clouds
1:55 PM 87.8 °F 95.6 °F 73.4 °F 62% 30.07 in 10.0 mi North 3.5 mph - N/A   Mostly Cloudy
2:15 PM 87.8 °F 95.6 °F 73.4 °F 62% 30.06 in 10.0 mi East 5.8 mph - N/A   Mostly Cloudy
2:35 PM 87.8 °F 97.6 °F 75.2 °F 66% 30.06 in 10.0 mi NNE 5.8 mph - N/A   Overcast
2:55 PM 87.8 °F 95.6 °F 73.4 °F 62% 30.05 in 10.0 mi ENE 3.5 mph - N/A   Overcast
3:15 PM 87.8 °F 95.6 °F 73.4 °F 62% 30.04 in 10.0 mi Calm Calm - N/A   Mostly Cloudy
3:35 PM 87.8 °F 93.8 °F 71.6 °F 58% 30.03 in 10.0 mi North 4.6 mph - N/A   Mostly Cloudy
3:55 PM 89.6 °F 96.2 °F 71.6 °F 55% 30.03 in 10.0 mi NW 4.6 mph - N/A   Scattered Clouds
4:15 PM 91.4 °F 98.4 °F 71.6 °F 52% 30.03 in 10.0 mi NW 6.9 mph - N/A   Scattered Clouds
4:35 PM 87.8 °F 97.6 °F 75.2 °F 66% 30.03 in 10.0 mi ESE 9.2 mph - N/A   Scattered Clouds
4:55 PM 86.0 °F 96.9 °F 77.0 °F 74% 30.02 in 10.0 mi East 8.1 mph - N/A   Mostly Cloudy
5:15 PM 87.8 °F 99.7 °F 77.0 °F 70% 30.03 in 10.0 mi SE 8.1 mph - N/A   Overcast
5:35 PM 86.0 °F 96.9 °F 77.0 °F 74% 30.03 in 10.0 mi SE 5.8 mph - N/A   Mostly Cloudy
5:55 PM 86.0 °F 96.9 °F 77.0 °F 74% 30.03 in 10.0 mi SE 4.6 mph - N/A   Scattered Clouds
6:15 PM 84.2 °F 94.1 °F 77.0 °F 79% 30.03 in 10.0 mi SSE 5.8 mph - N/A   Scattered Clouds
6:35 PM 84.2 °F 94.1 °F 77.0 °F 79% 30.03 in 10.0 mi SE 5.8 mph - N/A   Clear
6:55 PM 82.4 °F 90.9 °F 77.0 °F 84% 30.02 in 10.0 mi Calm Calm - N/A   Clear
7:15 PM 82.4 °F 90.9 °F 77.0 °F 84% 30.03 in 10.0 mi Calm Calm - N/A   Clear
7:35 PM 80.6 °F 87.1 °F 77.0 °F 89% 30.03 in 10.0 mi Calm Calm - N/A   Clear
7:55 PM 80.6 °F 87.1 °F 77.0 °F 89% 30.04 in 10.0 mi Calm Calm - N/A   Clear
8:15 PM 78.8 °F - 77.0 °F 94% 30.05 in 10.0 mi Calm Calm - N/A   Clear
8:35 PM 78.8 °F - 78.8 °F 100% 30.05 in 10.0 mi Calm Calm - N/A   Clear
8:55 PM 77.0 °F - 77.0 °F 100% 30.05 in 10.0 mi Calm Calm - N/A   Clear
9:15 PM 78.8 °F - 78.8 °F 100% 30.06 in 10.0 mi Calm Calm - N/A   Clear
9:35 PM 77.0 °F - 77.0 °F 100% 30.06 in 7.0 mi Calm Calm - N/A   Clear
9:55 PM 77.0 °F - 77.0 °F 100% 30.06 in 5.0 mi Calm Calm - N/A   Clear
10:15 PM 75.2 °F - 75.2 °F 100% 30.06 in 5.0 mi Calm Calm - N/A   Clear
10:35 PM 73.4 °F - 73.4 °F 100% 30.06 in 1.8 mi Calm Calm - N/A   Mist
10:55 PM - - - N/A% 30.07 in 7.0 mi Calm Calm - N/A   Clear
11:15 PM - - - N/A% 30.06 in 2.0 mi Calm Calm - N/A   Clear
11:35 PM - - - N/A% 30.06 in 7.0 mi Calm Calm - N/A   Clear
11:55 PM - - - N/A% 30.07 in 0.8 mi Calm Calm - N/A   Mist